Tracking 31027 objects as of 19-Jul-2025
HD Live streaming from Space Station
objects crossing your sky now

SL-14 DEB

Track SL-14 DEB now!
10-day predictions


NORAD ID: 45289
Int'l Code: 1991-056AB
Perigee: 1,199.5 km
Apogee: 1,473.5 km
Inclination: 82.5 °
Period: 112.2 minutes
Semi major axis: 7707 km
RCS: Unknown
Launch date: August 15, 1991
Source: Commonwealth of Independent States (former USSR) (CIS)
Launch site: PLESETSK MISSILE AND SPACE COMPLEX (PKMTR)

Note: This is SATELLITE DEBRIS
Your satellite tracking list
STARLINK-5088
Track 1 satellite(s)




NASA's NSSDC Master Catalog

Two Line Element Set (TLE):
1 45289U 91056AB  25199.71954349  .00001004  00000-0  39203-2 0  9991
2 45289  82.5367  94.2007 0177744 283.4502  74.6847 12.83028618253495
Source of the keplerian elements: AFSPC